Lid_Strength_Index
2 2 3 3 3 4 4 4 4 4 4 3 3 3 3 3 2 2 3 3 3 3 3 2 2 2 6 10 9 1 -2 -2 0 4 8 8 7 7 9 9 7 9 8 7 6 6 7
2 2 3 3 4 4 4 4 5 4 4 3 3 4 3 3 3 3 3 3 3 3 3 2 1 2 9 14 5 -0 0 1 3 7 8 6 6 6 8 8 9 7 7 7 7 7 7
2 3 3 4 4 5 5 5 4 4 4 4 4 3 3 3 3 3 3 3 3 3 3 2 0 2 6 10 1 0 0 2 4 6 8 8 5 7 6 9 7 8 10 8 8 8 8
3 3 4 5 5 5 5 5 4 4 4 4 3 3 3 3 3 3 3 3 3 3 3 2 0 4 7 2 1 1 3 4 5 7 7 7 6 7 8 7 10 13 13 15 10 8 8
3 4 5 5 5 5 5 5 4 4 4 3 3 3 3 3 3 4 4 4 3 2 2 1 5 7 7 0 3 2 3 5 5 6 6 4 8 9 11 13 13 14 16 15 12 8 9
4 5 5 5 5 5 5 4 4 4 3 3 3 3 3 3 3 4 4 4 1 1 1 2 2 8 6 6 7 3 3 4 5 6 7 8 10 12 12 14 16 15 15 16 15 10 10
5 5 5 5 5 5 4 4 4 3 3 2 2 2 2 3 3 4 5 8 11 11 6 11 10 9 6 5 6 7 3 4 5 7 10 10 12 14 14 12 11 12 14 14 13 11 12
5 5 5 5 5 5 4 4 3 3 2 2 2 2 2 2 2 3 6 9 9 10 12 8 6 6 5 6 8 8 3 6 7 10 9 10 13 12 11 11 11 11 13 14 11 9 10
5 5 5 5 5 4 4 3 2 2 2 2 2 2 2 2 2 6 8 8 7 9 13 11 8 8 9 7 9 9 7 6 8 10 10 11 10 10 10 11 12 13 13 13 12 11 11
5 4 4 5 3 3 3 2 2 2 2 2 1 2 2 3 6 7 8 7 6 9 16 13 12 9 9 10 12 7 6 7 8 9 9 10 8 9 10 11 11 15 10 10 12 15 16
4 4 5 4 3 3 2 2 2 2 1 1 2 2 2 3 7 7 5 7 8 9 19 11 12 10 11 12 10 10 8 8 10 9 9 11 10 10 11 11 9 10 9 11 11 15 17
4 4 5 4 3 2 2 2 2 1 1 1 2 2 3 5 7 6 5 8 8 14 18 13 12 13 13 12 12 10 9 9 10 12 12 11 10 9 9 8 8 8 11 13 15 16 19
4 4 5 4 3 2 2 1 1 1 1 2 2 3 4 4 7 6 6 8 14 17 11 12 13 13 14 14 13 12 12 13 15 16 17 13 12 11 11 13 11 11 14 18 18 19 19
4 5 4 4 3 2 2 1 1 1 1 2 3 4 4 5 7 7 8 11 16 12 13 11 12 13 14 13 12 12 14 14 13 15 16 17 17 13 11 13 14 13 14 17 19 19 18
4 5 4 3 2 2 1 1 1 1 2 3 4 6 6 6 5 8 9 14 15 13 11 12 13 13 13 12 13 13 15 15 13 14 17 16 16 11 11 11 12 13 15 14 17 18 17
4 5 4 3 2 1 1 1 1 2 2 3 6 7 7 6 7 9 11 13 13 10 9 11 14 14 15 13 13 14 14 12 13 12 14 16 17 14 12 11 11 13 14 16 16 18 19
4 5 4 3 2 1 1 0 1 2 3 3 7 9 6 6 7 10 14 14 11 9 9 11 13 13 14 14 13 13 13 11 9 11 12 15 16 15 13 15 16 15 16 17 17 17 18
4 4 4 2 1 1 0 0 1 2 3 5 8 10 5 7 11 13 14 12 9 9 9 10 10 12 12 13 13 13 13 12 9 9 11 12 15 18 17 13 12 14 16 18 18 18 19
4 4 4 2 1 0 -0 0 1 2 3 6 9 9 6 7 13 14 12 9 9 9 10 11 11 11 11 13 14 12 11 8 8 8 11 11 15 18 17 16 14 15 14 17 18 19 19
4 4 3 2 1 0 0 0 1 2 2 6 9 11 9 9 12 12 13 12 11 7 9 9 10 11 12 13 13 13 12 9 9 7 5 9 15 16 18 18 16 15 14 14 17 18 19
5 5 4 2 1 0 0 0 1 2 3 6 9 11 10 12 11 12 12 12 11 12 9 9 10 10 12 14 13 13 12 11 10 8 10 13 15 15 15 13 13 14 14 14 16 16 17
4 5 3 3 1 0 -0 0 1 2 3 6 8 9 10 11 11 11 11 13 11 11 11 11 11 10 11 13 13 14 13 13 14 11 13 13 15 15 15 13 13 14 13 13 14 14 14
5 5 4 2 1 0 -0 0 1 2 3 6 6 7 8 10 11 12 12 11 10 9 8 8 9 11 11 11 10 11 11 12 13 14 14 14 15 16 19 15 15 17 14 13 12 11 12
4 4 3 2 1 0 -0 -0 0 1 3 5 6 7 9 11 10 10 9 8 8 9 10 9 9 11 9 8 9 10 11 12 12 13 14 15 16 17 18 18 20 16 12 11 10 10 10
4 5 3 2 1 0 -0 -0 -0 1 2 4 6 6 9 11 9 8 8 9 9 9 9 8 8 8 9 10 13 14 14 14 13 12 14 14 15 18 18 19 16 13 11 11 12 12 8
5 5 4 2 1 0 0 -0 -0 0 2 4 5 6 8 9 10 7 9 9 11 11 10 9 7 8 9 12 14 17 18 16 15 14 13 13 14 16 18 20 19 14 9 8 9 15 9
5 5 4 2 1 1 0 0 0 -0 1 4 4 5 7 9 8 8 9 9 9 11 11 11 10 10 10 14 18 20 20 14 19 16 17 17 16 18 17 19 15 10 9 8 15 15 9
5 5 4 3 1 1 1 0 0 0 0 3 4 5 5 8 8 6 6 8 9 10 12 10 11 12 13 16 17 18 19 17 18 15 16 17 18 16 15 18 19 9 9 12 11 10 10
5 5 5 2 1 1 1 0 0 0 0 3 5 5 4 6 6 5 4 4 6 6 9 11 11 12 12 15 16 17 18 16 19 20 14 17 15 17 15 15 10 9 10 9 9 11 10